Overview Statistics Trail Chart Weather Telemetry Raw packets
 

This is the latest recevied weather packets stored in our database for station/object OE6ATD-13. If no packets are shown the sender has not sent any weather packets the latest 10 day(s).

<< 10 11 12 13 14 15 16 >>
Time Temp. Humidity Pressure Rain* Wind** Luminosity Snow
1788533424 34.44° C 27% 1015.8 hPa 0 mm - 323 W/m² -
1788532820 33.89° C 27% 1015.9 hPa 0 mm - 361 W/m² -
1788532216 34.44° C 27% 1016 hPa 0 mm - 395 W/m² -
1788531627 33.89° C 28% 1016.2 hPa 0 mm - 439 W/m² -
1788531022 33.89° C 29% 1016.3 hPa 0 mm - 476 W/m² -
1788530418 33.33° C 28% 1016.5 hPa 0 mm - 480 W/m² -
1788529829 33.89° C 28% 1016.5 hPa 0 mm - 544 W/m² -
1788529225 33.89° C 27% 1016.5 hPa 0 mm - 574 W/m² -
1788528621 33.89° C 27% 1016.8 hPa 0 mm - 610 W/m² -
1788528019 33.89° C 26% 1017 hPa 0 mm - 638 W/m² -
1788527430 34.44° C 26% 1017 hPa 0 mm - 676 W/m² -
1788526826 33.89° C 25% 1017.2 hPa 0 mm - 699 W/m² -
1788526223 33.89° C 28% 1017.4 hPa 0 mm - 719 W/m² -
1788525617 32.78° C 31% 1017.5 hPa 0 mm - 715 W/m² -
1788525028 32.22° C 34% 1017.6 hPa 0 mm - 743 W/m² -
1788524424 32.22° C 36% 1017.9 hPa 0 mm - 770 W/m² -
1788523820 31.67° C 36% 1018 hPa 0 mm - 775 W/m² -
1788523228 31.67° C 35% 1018.1 hPa 0 mm - 803 W/m² -
1788522624 31.67° C 36% 1018.3 hPa 0 mm - 813 W/m² -
1788522020 31.67° C 37% 1018.5 hPa 0 mm - 817 W/m² -
1788521415 31.67° C 35% 1018.6 hPa 0 mm - 824 W/m² -
1788520826 31.67° C 36% 1018.8 hPa 0 mm - 855 W/m² -
1788520222 31.11° C 37% 1018.8 hPa 0 mm - 854 W/m² -
1788519618 31.11° C 37% 1018.9 hPa 0 mm - 852 W/m² -
1788519028 30.56° C 37% 1019 hPa 0 mm - 854 W/m² -

* Rain latest hour (hover to see other rain measurements)
** Current wind speed in m/s (hover to see current wind gust speed)